Home > Weather > Ottawa > Past weeks

Flag for Canada Past Weather in Ottawa, Ontario, Canada — Yesterday and Last 2 Weeks

Now
82 °F

Scattered clouds.


Feels Like: 81 °F
Forecast: N/A
Wind: 16 mph from West

Location: Ottawa Int'L. Ont.

Current Time: May 30, 2016 at 6:20:11 PM

Latest Report: May 30, 2016 at 5:00 PM


Visibility: 15 mi

Pressure: 29.78 "Hg

Humidity: 37%

Dew Point: 54 °F

Location of OttawaLocation

Past Weather in Ottawa — Graph

°F

Ottawa Temperature Yesterday

Maximum temperature yesterday: 90 °F (at 5:00 PM)
Minimum temperature yesterday: 64 °F (at 5:00 AM)
Average temperature yesterday: 75 °F

High & Low Weather Summary for the Past Weeks

 TemperatureHumidityPressure
High90 °F (May 27, 4:04 PM)93% (May 20, 6:00 AM)30.26 "Hg (May 20, 6:00 AM)
Low34 °F (May 17, 5:00 AM)15% (May 24, 4:00 PM)29.72 "Hg (May 15, 5:00 PM)
Average64 °F54%30.01 "Hg
* Reported May 15 5:00 PM — May 30 5:00 PM, Ottawa, Weather by CustomWeather, © 2016

Note: Actual official high and low records may vary slightly from our data, if they occured in-between our weather recording intervals... More about our weather records

Advertising

Ottawa Weather History for the Previous 24 Hours

Scroll right to see more
 ConditionsComfort  
Time TempWeatherWind HumidityBarometerVisibility
5:00 PM
Mon, May 30
82 °FScattered clouds.16 mph37%29.78 "Hg15 mi
4:00 PM84 °FPartly sunny.16 mph40%29.78 "Hg15 mi
3:00 PM82 °FScattered clouds.17 mph42%29.78 "Hg15 mi
2:00 PM82 °FPartly sunny.14 mph42%29.79 "Hg15 mi
1:00 PM81 °FPartly sunny.14 mph48%29.79 "Hg15 mi
12:00 PM82 °FPartly sunny.18 mph42%29.80 "Hg15 mi
11:00 AM81 °FScattered clouds.15 mph51%29.81 "Hg15 mi
10:00 AM79 °FPassing clouds.14 mph54%29.83 "Hg15 mi
9:00 AM75 °FScattered clouds.10 mph61%29.84 "Hg15 mi
8:00 AM72 °FScattered clouds.13 mph69%29.84 "Hg15 mi
7:00 AM68 °FScattered clouds.9 mph78%29.86 "Hg15 mi
6:00 AM66 °FPassing clouds.5 mph83%29.85 "Hg15 mi
5:00 AM66 °FPassing clouds.2 mph83%29.86 "Hg15 mi
4:00 AM68 °FPassing clouds.9 mph78%29.85 "Hg15 mi
3:00 AM70 °FPassing clouds.8 mph69%29.86 "Hg15 mi
2:00 AM70 °FPassing clouds.7 mph73%29.87 "Hg15 mi
1:00 AM72 °FPassing clouds.9 mph73%29.89 "Hg15 mi
12:00 AM73 °FOvercast.5 mph69%29.89 "Hg15 mi
11:00 PM
Sun, May 29
75 °FMostly cloudy.10 mph65%29.90 "Hg15 mi
10:00 PM77 °FMostly cloudy.12 mph65%29.91 "Hg15 mi
9:00 PM79 °FMostly cloudy.15 mph61%29.89 "Hg15 mi
8:00 PM82 °FBroken clouds.12 mph58%29.89 "Hg15 mi
7:00 PM84 °FBroken clouds.14 mph55%29.89 "Hg15 mi
6:00 PM90 °FBroken clouds.10 mph49%29.89 "Hg15 mi
Weather by CustomWeather, © 2016

See weather overviewHow to use our weather pages